Weather Roundup
Issued by NWS

Home | Current Version | Previous Version | Graphics & Text | Print | Product List | Glossary Off
Versions: 1 2 3 4 5 6 7 8 9 10 11 12 13 14 15 16 17 18 19 20 21 22 23 24 25 26 27 28 29 30 31 32 33 34 35 36 37 38 39 40 41 42 43 44 45 46 47 48 49 50

000
NZUS93 KARX 061710
HRRWXR

CURRENT HOURLY OBSERVATIONS ACROSS
MUCH OF THE UPPER MISSISSIPPI VALLEY
NATIONAL WEATHER SERVICE LA CROSSE WI
1200 PM CDT MON JUL 06 2015


...SOUTHEAST MINNESOTA...


CITY           SKY/WX    TMP DP  RH WIND       PRES   REMARKS
ROCHESTER      CLOUDY    73  68  84 SW12      29.84F
ROCHESTER/MAYO CLOUDY    73  71  93 SW12G18   29.84S
WINONA         CLOUDY    77  70  78 SW8       29.81F
AUSTIN         CLOUDY    73  70  88 SW10      29.84S
ALBERT LEA     DRIZZLE   72  70  94 SW7       29.84S
DODGE CENTER   LGT RAIN  73  70  88 SW14G21   29.85R
PRESTON        CLOUDY    71  66  83 SW9       29.84F
OWATONNA       RAIN      70  68  94 SW10G18   29.85R
FARIBAULT      CLOUDY    72  70  94 W10       29.84S
$$

...ELSEWHERE IN MINNESOTA...


CITY           SKY/WX    TMP DP  RH WIND       PRES   REMARKS
MINNEAPOLIS    LGT RAIN  67  64  90 N20G28    29.86R FOG
INTNL FALLS    MOSUNNY   62  47  57 NW13      29.97S
DULUTH         LGT RAIN  63  58  83 N13       29.91R
RED WING       LGT RAIN  75  72  88 W9        29.79S
REDWOOD FALLS  CLOUDY    67  60  78 N12G21    29.95R HAZE
MANKATO        CLOUDY    66  64  94 N21       29.87R
WORTHINGTON    CLOUDY    70  61  73 N23G30    29.95R
FAIRMONT       CLOUDY    70  63  78 N22G30    29.88R
$$

...SOUTHWEST WISCONSIN...


CITY           SKY/WX    TMP DP  RH WIND       PRES   REMARKS
LA CROSSE      CLOUDY    76  70  82 S8        29.81F
PRAIRIE DU CHI DRIZZLE   73  67  80 E7        29.82F
BOSCOBEL       LGT RAIN  76  69  79 VRB5      29.84F
LONE ROCK      LGT RAIN  76  70  82 S10       29.87F
PLATTEVILLE    CLOUDY    73  72  96 SE13      29.88F
FORT MC COY    CLOUDY    76  68  76 S8        29.83F
CAMP DOUGLAS   CLOUDY    77  77 100 VRB7      29.84F
VIROQUA        FAIR      75  71  87 S8        29.85F
WIS DELLS      CLOUDY    74  69  84 S10G16    29.88F
$$

...ELSEWHERE IN WISCONSIN...


CITY           SKY/WX    TMP DP  RH WIND       PRES   REMARKS
MILWAUKEE      CLOUDY    82  68  62 S16G24    29.92F
MADISON        RAIN      73  69  87 SW8       29.92S FOG
GREEN BAY      CLOUDY    75  70  84 S7        29.87F HAZE
EAU CLAIRE     CLOUDY    74  69  85 S8        29.78F
BLACK RVR FLS  PTSUNNY   75  74  97 S6        29.82F FOG
MEDFORD        CLOUDY    71  70  96 S9        29.83F
WAUSAU         LGT RAIN  72  69  90 S8        29.82F
WIS RAPIDS     CLOUDY    74  69  85 SW12      29.86S
MARSHFIELD     CLOUDY    75  68  78 S8        29.84S
RICE LAKE      RAIN      70  68  93 S5        29.83S
$$

...NORTHEAST IOWA...


CITY           SKY/WX    TMP DP  RH WIND       PRES   REMARKS
DECORAH          N/A    N/A N/A N/A MISG        N/A
MASON CITY     CLOUDY    76  71  85 SW10      29.86S
CHARLES CITY   CLOUDY    75  73  94 SW9       29.85S
OELWEIN          N/A    N/A N/A N/A MISG        N/A
$$

...ELSEWHERE IN IOWA...


CITY           SKY/WX    TMP DP  RH WIND       PRES   REMARKS
DES MOINES     LGT RAIN  77  73  87 SW10      29.90R FOG
IOWA CITY      HVY RAIN  73  72  96 SW8       29.92R FOG
FORT DODGE     CLOUDY    77  72  83 SW9       29.88S
$$

...NORTHERN ILLINOIS...


CITY           SKY/WX    TMP DP  RH WIND       PRES   REMARKS
CHICAGO-OHARE  CLOUDY    82  69  64 S15G25    29.94F
CHICAGO-MIDWAY PTSUNNY   84  68  58 S17       29.95F
MOLINE         CLOUDY    78  69  73 S6        29.92F
ROCKFORD       LGT RAIN  75  70  84 NW13      29.96R
PEORIA         PTSUNNY   85  74  69 S12       29.95F HX  92
$$

NOTE: "FAIR" INDICATES FEW OR NO CLOUDS BELOW 12,000 FEET WITH NO
SIGNIFICANT WEATHER AND/OR OBSTRUCTIONS TO VISIBILITY. WIND
SPEEDS ARE IN MILES-PER-HOUR.



USA.gov is the U.S. government's official web portal to all federal, state and local government web resources and services.